This demonstration page uses our WeatherBlox Daily Observations layout. Learn more.

Left ArrowRight Arrow

Hourly Observations for November 17, 2020

Temp ( °F °C ) Dew Point ( °F °C ) Humidity (%) Winds ( mph kmh ) Pressure ( in mb ) Visibility ( mi km ) Precip ( " mm )
12:56 am 00:56 Cloudy 38 3.3 29 -1.7 70 70 Calm 30.43 1030 10 16 0.00 0.00
1:56 am 01:56 Cloudy 38 3.3 27 -2.8 65 65 Calm 30.41 1030 10 16 0.00 0.00
2:56 am 02:56 Mostly Clear 33 0.6 25 -3.9 72 72 Calm 30.41 1030 10 16 0.00 0.00
3:56 am 03:56 Clear 33 0.6 24 -4.4 70 70 SSW 7 11 30.41 1030 10 16 0.00 0.00
4:56 am 04:56 Clear 31 -0.6 24 -4.4 76 76 Calm 30.42 1030 10 16 0.00 0.00
5:56 am 05:56 Clear 31 -0.6 24 -4.4 76 76 SSE 5 7 30.43 1031 10 16 0.00 0.00
6:56 am 06:56 Clear 33 0.6 23 -5 66 66 SSE 5 7 30.43 1031 10 16 0.00 0.00
7:56 am 07:56 Sunny 30 -1.1 24 -4.4 79 79 S 7 11 30.44 1031 10 16 0.00 0.00
8:56 am 08:56 Sunny 43 6.1 27 -2.8 53 53 SE 8 13 30.42 1030 10 16 0.00 0.00
9:56 am 09:56 Sunny 50 10 25 -3.9 38 38 S 21 33 30.39 1029 10 16 0.00 0.00
10:56 am 10:56 Sunny 54 12.2 25 -3.9 33 33 S 23 37 30.36 1028 10 16 0.00 0.00
11:56 am 11:56 Sunny 57 13.9 27 -2.8 32 32 S 23 37 30.31 1026 10 16 0.00 0.00
12:56 pm 12:56 Sunny 61 16.1 28 -2.2 29 29 S 25 41 30.26 1025 10 16 0.00 0.00
1:56 pm 13:56 Sunny 62 16.7 30 -1.1 30 30 S 21 33 30.23 1024 10 16 0.00 0.00
2:56 pm 14:56 Sunny 65 18.3 31 -0.6 28 28 S 18 30 30.22 1023 10 16 0.00 0.00
3:56 pm 15:56 Sunny 64 17.8 31 -0.6 29 29 S 15 24 30.19 1023 10 16 0.00 0.00
4:56 pm 16:56 Sunny 61 16.1 31 -0.6 32 32 S 13 20 30.19 1023 10 16 0.00 0.00
5:56 pm 17:56 Clear 52 11.1 31 -0.6 45 45 SSE 10 17 30.19 1022 10 16 0.00 0.00
6:56 pm 18:56 Clear 52 11.1 31 -0.6 45 45 SSE 15 24 30.18 1022 10 16 0.00 0.00
7:56 pm 19:56 Clear 49 9.4 30 -1.1 48 48 S 15 24 30.17 1022 10 16 0.00 0.00
8:56 pm 20:56 Clear 49 9.4 30 -1.1 48 48 S 15 24 30.14 1021 10 16 0.00 0.00
9:56 pm 21:56 Clear 49 9.4 30 -1.1 48 48 S 13 20 30.12 1020 10 16 0.00 0.00
10:56 pm 22:56 Clear 48 8.9 29 -1.7 48 48 S 14 22 30.11 1020 10 16 0.00 0.00
11:56 pm 23:56 Clear 47 8.3 29 -1.7 50 50 S 15 24 30.08 1019 10 16 0.00 0.00

Powered by AerisWeather